Weather History for Falls City, NE

Change the Weather History Date:

Monday, February 13, 2012

  Actual Average Record
Temperature  
Mean Temperature 30 °F -  
Max Temperature 33 °F 41 °F 73 °F (1990)
Min Temperature 26 °F 19 °F -6 °F (1986)
Degree Days  
Heating Degree Days 36    
Moisture  
Dew Point 27 °F    
Average Humidity 90    
Maximum Humidity 96    
Minimum Humidity 37    
Precipitation  
Precipitation 0.07 in - - ()
Sea Level Pressure  
Sea Level Pressure 29.89 in    
Wind  
Wind Speed 12 mph (South)    
Max Wind Speed 20 mph    
Max Gust Speed 26 mph    
Visibility 4 miles    
Events Snow    
Averages and records for this station are not official NWS values.
T = Trace of Precipitation, MM = Missing Value Source: NWS Daily Summary

Daily Weather History Graph

Daily Weather History Graph

Search for Another Location

Airport:

Trip Planner

Search our weather history database for the weather conditions in past years. The results will help you decide how hot, cold, wet, or windy it might be!

Date:

Astronomy

Feb. 13, 2012 Rise Set
Actual Time 7:18 AM CST 5:55 PM CST
Civil Twilight 6:50 AM CST 6:23 PM CST
Nautical Twilight 6:18 AM CST 6:55 PM CST
Astronomical Twilight 5:47 AM CST 7:26 PM CST
Moon No Moon Rise 10:17 AM CST (2/13)
Length of Visible Light 11h 32m
Length of Day
10h 36m
Waning Gibbous, 61% of the Moon is Illuminated
Feb 13
Waning Gibbous
Feb 14
Last Quarter
Feb 21
New
Feb 29
First Quarter
Mar 8
Full

Hourly Weather History & Observations

Time (CST) Temp. Windchill Dew Point Humidity Pressure Visibility Wind Dir Wind Speed Gust Speed Precip Events Conditions
12:53 AM 32.0 °F 20.1 °F 8.1 °F 37% 30.09 in 10.0 mi SSW 19.6 mph 26.5 mph N/A   Overcast
1:31 AM 28.4 °F 16.2 °F 19.4 °F 69% 30.07 in 4.0 mi South 17.3 mph 23.0 mph 0.00 in Snow Light Snow
1:39 AM 26.6 °F 15.2 °F 21.2 °F 80% 30.07 in 1.8 mi South 13.8 mph 25.3 mph 0.00 in Snow Light Snow
1:53 AM 26.1 °F 17.6 °F 23.0 °F 88% 30.09 in 1.2 mi South 8.1 mph - 0.00 in Snow Light Snow
2:05 AM 26.6 °F 16.8 °F 23.0 °F 86% 30.05 in 1.2 mi South 10.4 mph - 0.00 in Snow Light Snow
2:11 AM 26.6 °F 16.8 °F 23.0 °F 86% 30.05 in 2.0 mi South 10.4 mph - 0.00 in Snow Light Snow
2:22 AM 26.6 °F 17.5 °F 23.0 °F 86% 30.04 in 1.8 mi South 9.2 mph - 0.00 in Snow Light Snow
2:40 AM 26.6 °F 16.8 °F 23.0 °F 86% 30.03 in 2.0 mi SSE 10.4 mph - 0.00 in Snow Light Snow
2:48 AM 26.6 °F 17.5 °F 23.0 °F 86% 30.03 in 1.8 mi SSE 9.2 mph - 0.00 in Snow Light Snow
2:53 AM 26.1 °F 16.2 °F 23.0 °F 88% 30.05 in 2.0 mi SSE 10.4 mph - 0.00 in Snow Light Snow
3:09 AM 26.6 °F 16.8 °F 23.0 °F 86% 30.01 in 4.0 mi SSE 10.4 mph - 0.00 in Snow Light Snow
3:21 AM 26.6 °F 16.2 °F 23.0 °F 86% 30.00 in 2.5 mi SSE 11.5 mph - 0.00 in Snow Light Snow
3:34 AM 26.6 °F 16.2 °F 23.0 °F 86% 29.99 in 2.0 mi SSE 11.5 mph - 0.00 in Snow Light Snow
3:42 AM 26.6 °F 16.8 °F 24.8 °F 93% 29.98 in 1.8 mi SSE 10.4 mph - 0.00 in Snow Light Snow
3:53 AM 26.1 °F 14.5 °F 24.1 °F 92% 30.01 in 1.8 mi SSE 13.8 mph - 0.00 in Snow Light Snow
4:01 AM 26.6 °F 15.7 °F 24.8 °F 93% 29.97 in 3.0 mi SSE 12.7 mph - 0.00 in Snow Light Snow
4:16 AM 26.6 °F 14.7 °F 24.8 °F 93% 29.96 in 2.5 mi SSE 15.0 mph - 0.00 in Snow Light Snow
4:25 AM 26.6 °F 15.2 °F 24.8 °F 93% 29.96 in 1.8 mi SSE 13.8 mph - 0.00 in Snow Light Snow
4:44 AM 26.6 °F 14.7 °F 24.8 °F 93% 29.95 in 1.0 mi SSE 15.0 mph - 0.00 in Snow Light Snow
4:53 AM 27.0 °F 15.6 °F 25.0 °F 92% 29.97 in 1.5 mi SSE 13.8 mph - 0.00 in Snow Light Snow
5:03 AM 26.6 °F 14.3 °F 24.8 °F 93% 29.94 in 1.8 mi SSE 16.1 mph - 0.00 in Snow Light Snow
5:12 AM 26.6 °F 14.3 °F 24.8 °F 93% 29.94 in 2.5 mi SSE 16.1 mph - 0.00 in Snow Light Snow
5:53 AM 28.0 °F 17.0 °F 25.0 °F 88% 29.96 in 1.2 mi SSE 13.8 mph - 0.00 in Snow Light Snow
6:13 AM 28.4 °F 18.5 °F 24.8 °F 86% 29.92 in 2.0 mi SSE 11.5 mph - 0.00 in Snow Light Snow
6:25 AM 28.4 °F 19.1 °F 24.8 °F 86% 29.92 in 3.0 mi SSE 10.4 mph - 0.00 in Snow Light Snow
6:53 AM 28.0 °F 18.1 °F 25.0 °F 88% 29.94 in 10.0 mi SSE 11.5 mph - 0.00 in   Overcast
7:23 AM 28.4 °F 17.5 °F 24.8 °F 86% 29.90 in 10.0 mi South 13.8 mph - N/A   Overcast
7:40 AM 28.4 °F 18.0 °F 24.8 °F 86% 29.89 in 10.0 mi SSE 12.7 mph - N/A   Overcast
7:53 AM 28.9 °F 17.7 °F 25.0 °F 85% 29.92 in 10.0 mi South 15.0 mph - N/A   Overcast
8:53 AM 28.9 °F 17.7 °F 27.0 °F 92% 29.91 in 6.0 mi SSE 15.0 mph - N/A   Overcast
9:53 AM 30.0 °F 20.5 °F 28.0 °F 92% 29.89 in 4.0 mi SSE 11.5 mph - N/A   Overcast
10:32 AM 30.2 °F 20.2 °F 28.4 °F 93% 29.85 in 2.5 mi South 12.7 mph - N/A   Overcast
10:53 AM 30.9 °F 21.7 °F 28.9 °F 92% 29.87 in 2.5 mi South 11.5 mph - N/A   Overcast
11:17 AM 30.2 °F 19.8 °F 28.4 °F 93% 29.83 in 3.0 mi South 13.8 mph - N/A   Overcast
11:31 AM 30.2 °F 19.8 °F 28.4 °F 93% 29.82 in 2.5 mi SSE 13.8 mph - N/A   Overcast
11:48 AM 30.2 °F 20.8 °F 28.4 °F 93% 29.81 in 3.0 mi SSE 11.5 mph - 0.01 in   Overcast
11:53 AM 30.9 °F 21.7 °F 28.9 °F 92% 29.84 in 3.0 mi SSE 11.5 mph - 0.01 in   Overcast
12:34 PM 30.2 °F 20.2 °F 28.4 °F 93% 29.79 in 2.5 mi South 12.7 mph - 0.01 in   Overcast
12:53 PM 32.0 °F 23.6 °F 30.0 °F 92% 29.80 in 2.5 mi South 10.4 mph - 0.02 in   Overcast
1:53 PM 32.0 °F 23.6 °F 30.0 °F 92% 29.78 in 2.5 mi SSE 10.4 mph - 0.02 in   Overcast
2:05 PM 32.0 °F 23.6 °F 30.2 °F 93% 29.75 in 3.0 mi SSE 10.4 mph - N/A   Overcast
2:15 PM 32.0 °F 24.2 °F 30.2 °F 93% 29.75 in 2.5 mi South 9.2 mph - N/A   Overcast
2:53 PM 32.0 °F 24.2 °F 30.0 °F 92% 29.77 in 3.0 mi South 9.2 mph - N/A   Overcast
3:53 PM 32.0 °F 24.8 °F 30.9 °F 96% 29.76 in 4.0 mi South 8.1 mph - N/A   Overcast
4:53 PM 32.0 °F 25.6 °F 30.9 °F 96% 29.76 in 4.0 mi South 6.9 mph - N/A   Overcast
5:53 PM 32.0 °F 25.6 °F 30.9 °F 96% 29.76 in 7.0 mi South 6.9 mph - 0.01 in   Overcast
6:17 PM 32.0 °F 25.6 °F 30.2 °F 93% 29.74 in 7.0 mi South 6.9 mph - N/A   Overcast
6:53 PM 32.0 °F 27.5 °F 30.9 °F 96% 29.77 in 9.0 mi South 4.6 mph - N/A   Overcast
7:35 PM 32.0 °F 28.7 °F 30.2 °F 93% 29.75 in 5.0 mi SSW 3.5 mph - 0.00 in Snow Light Snow
7:43 PM 32.0 °F 28.7 °F 30.2 °F 93% 29.75 in 6.0 mi SSW 3.5 mph - 0.00 in Snow Light Snow
7:53 PM 33.1 °F - 30.9 °F 92% 29.78 in 5.0 mi Calm Calm - 0.00 in Snow Light Snow
8:08 PM 32.0 °F 28.7 °F 30.2 °F 93% 29.76 in 1.8 mi WSW 3.5 mph - 0.00 in Snow Light Snow
8:34 PM 32.0 °F 28.7 °F 30.2 °F 93% 29.76 in 3.0 mi SSW 3.5 mph - 0.00 in Snow Light Snow
8:40 PM 32.0 °F - 30.2 °F 93% 29.76 in 6.0 mi Calm Calm - 0.00 in   Overcast
8:53 PM 32.0 °F 28.7 °F 30.9 °F 96% 29.78 in 9.0 mi SW 3.5 mph - 0.00 in   Overcast
9:53 PM 32.0 °F - 30.9 °F 96% 29.80 in 5.0 mi Calm Calm - 0.01 in   Overcast
10:12 PM 32.0 °F 28.7 °F 30.2 °F 93% 29.77 in 4.0 mi West 3.5 mph - N/A   Overcast
10:42 PM 32.0 °F 27.5 °F 30.2 °F 93% 29.78 in 8.0 mi West 4.6 mph - N/A   Overcast
10:53 PM 32.0 °F 26.4 °F 30.9 °F 96% 29.81 in 7.0 mi WSW 5.8 mph - N/A   Overcast
11:53 PM 32.0 °F 25.6 °F 30.9 °F 96% 29.81 in 10.0 mi West 6.9 mph - N/A   Overcast